This demonstration page uses our WeatherBlox Daily Observations layout. Learn more.

Left ArrowRight Arrow

Hourly Observations for December 1, 2022

Temp ( °F °C ) Dew Point ( °F °C ) Humidity (%) Winds ( mph kmh ) Pressure ( in mb ) Visibility ( mi km ) Precip ( " mm )
12:59 am 00:59 Clear 48 8.9 24 -4.4 39 39 WNW 15 24 30.13 1020 10 16 0.00 0.00
1:59 am 01:59 Clear 48 8.9 22 -5.6 35 35 WNW 17 28 30.15 1021 10 16 0.00 0.00
2:59 am 02:59 Clear 46 7.8 23 -5 40 40 WNW 14 22 30.18 1022 10 16 0.00 0.00
3:59 am 03:59 Clear 44 6.7 24 -4.4 45 45 WNW 15 24 30.22 1023 10 16 0.00 0.00
4:59 am 04:59 Clear 43 6.1 24 -4.4 47 47 WNW 16 26 30.26 1025 10 16 0.00 0.00
5:59 am 05:59 Clear 42 5.6 22 -5.6 44 44 WNW 13 20 30.29 1026 10 16 0.00 0.00
6:59 am 06:59 Clear 42 5.6 23 -5 46 46 WNW 14 22 30.33 1027 10 16 0.00 0.00
7:59 am 07:59 Mostly Sunny 43 6.1 26 -3.3 51 51 NW 13 20 30.37 1028 10 16 0.00 0.00
8:59 am 08:59 Mostly Sunny 45 7.2 20 -6.7 36 36 NW 20 31 30.39 1029 10 16 0.00 0.00
9:59 am 09:59 Mostly Sunny 47 8.3 22 -5.6 37 37 NW 15 24 30.42 1030 10 16 0.00 0.00
10:59 am 10:59 Mostly Sunny 48 8.9 21 -6.1 34 34 NW 17 28 30.44 1031 10 16 0.00 0.00
11:59 am 11:59 Mostly Sunny 49 9.4 22 -5.6 34 34 NW 15 24 30.43 1030 10 16 0.00 0.00
12:59 pm 12:59 Mostly Sunny 49 9.4 21 -6.1 33 33 NW 12 19 30.43 1030 10 16 0.00 0.00
1:59 pm 13:59 Sunny 51 10.6 21 -6.1 30 30 NNW 13 20 30.42 1030 10 16 0.00 0.00
2:59 pm 14:59 Mostly Sunny 50 10 19 -7.2 29 29 N 12 19 30.43 1031 10 16 0.00 0.00
3:59 pm 15:59 Mostly Sunny 49 9.4 20 -6.7 31 31 NNW 9 15 30.45 1031 10 16 0.00 0.00
4:59 pm 16:59 Partly Cloudy 47 8.3 18 -7.8 31 31 NNW 10 17 30.47 1032 10 16 0.00 0.00
5:59 pm 17:59 Mostly Clear 45 7.2 22 -5.6 40 40 NNW 8 13 30.50 1033 10 16 0.00 0.00
6:59 pm 18:59 Clear 40 4.4 27 -2.8 59 59 Calm 30.50 1033 10 16 0.00 0.00
7:59 pm 19:59 Clear 37 2.8 28 -2.2 70 70 Calm 30.51 1033 10 16 0.00 0.00
8:59 pm 20:59 Clear 36 2.2 28 -2.2 73 73 Calm 30.52 1034 10 16 0.00 0.00
9:59 pm 21:59 Clear 35 1.7 28 -2.2 75 75 Calm 30.52 1034 10 16 0.00 0.00
10:59 pm 22:59 Clear 34 1.1 29 -1.7 82 82 Calm 30.53 1034 10 16 0.00 0.00
11:59 pm 23:59 Clear 34 1.1 30 -1.1 85 85 Calm 30.52 1033 10 16 0.00 0.00

Powered by AerisWeather